Overview Statistics Trail Chart Weather Telemetry Raw packets
 

This is the latest recevied weather packets stored in our database for station/object M0HPP-13. If no packets are shown the sender has not sent any weather packets the latest 10 day(s).

<< 13 14 15 16 17 18 19 >>
Time Temp. Humidity Pressure Rain* Wind** Luminosity Snow
1788420486 13.33° C 87% 1004.5 hPa 0 mm - 116 W/m² -
1788419886 12.78° C 87% 1004.5 hPa 0 mm - 72 W/m² -
1788419286 12.22° C 89% 1004.4 hPa 0 mm - 70 W/m² -
1788418687 11.67° C 90% 1004.3 hPa 0 mm - 43 W/m² -
1788418086 11.67° C 91% 1004.2 hPa 0 mm - 34 W/m² -
1788417486 12.22° C 90% 1004 hPa 0 mm - 28 W/m² -
1788416886 12.22° C 90% 1004 hPa 0 mm - 25 W/m² -
1788416287 12.22° C 89% 1003.7 hPa 0 mm - 22 W/m² -
1788415686 11.67° C 91% 1003.7 hPa 0 mm - 19 W/m² -
1788415086 11.67° C 92% 1003.7 hPa 0 mm - 12 W/m² -
1788414486 11.67° C 93% 1003.5 hPa 0 mm - 7 W/m² -
1788413886 11.67° C 95% 1003.4 hPa 0 mm - 4 W/m² -
1788413286 12.22° C 96% 1003.1 hPa 0 mm - 2 W/m² -
1788412703 12.22° C 97% 1002.9 hPa 0 mm - 1 W/m² -
1788412086 12.22° C 99% 1002.8 hPa 0 mm - 0 W/m² -
1788411486 12.22° C 99% 1002.7 hPa 0 mm - 0 W/m² -
1788410887 12.78° C 99% 1002.6 hPa 0 mm - 0 W/m² -
1788410286 12.78° C 99% 1002.6 hPa 0 mm - 0 W/m² -
1788409686 13.33° C 99% 1002.5 hPa 0 mm - 0 W/m² -
1788409086 13.33° C 99% 1002.5 hPa 0 mm - 0 W/m² -
1788408486 13.33° C 99% 1002.4 hPa 0 mm - 0 W/m² -
1788407886 13.33° C 99% 1002.3 hPa 0 mm - 0 W/m² -
1788407286 12.78° C 99% 1002.2 hPa 0 mm - 0 W/m² -
1788406686 12.78° C 98% 1002.2 hPa 0 mm - 0 W/m² -
1788406086 11.67° C 98% 1002.2 hPa 0 mm - 0 W/m² -

* Rain latest hour (hover to see other rain measurements)
** Current wind speed in m/s (hover to see current wind gust speed)